EA7RX-4 Weather Reports


time (UTC)temp
F
wind
direction
speed
knots
gust
knots
rain 1hr
in
rain 24hr
in
rain mn
in
humidity
%
barometer
mb
20260506234003 52 98 7.0 13.9 0.00 0.00 0.00 58 1009.0
20260506233003 53 83 5.2 11.3 0.00 0.00 0.00 56 1009.0
20260506232003 53 87 4.3 8.7 0.00 0.00 0.00 53 1008.8
20260506231003 54 71 4.3 8.7 0.00 0.00 0.00 51 1008.9
20260506230003 54 80 4.3 7.8 0.00 0.00 0.00 49 1009.0
20260506225003 54 78 3.5 7.8 0.00 0.00 0.00 47 1009.1
20260506224003 54 76 4.3 8.7 0.00 0.00 0.00 46 1008.9
20260506223003 55 82 3.5 8.7 0.00 0.00 0.00 44 1009.0
20260506222003 56 73 2.6 5.2 0.00 0.00 0.00 43 1009.0
20260506221003 56 64 1.7 6.1 0.00 0.00 0.00 41 1009.0
20260506220003 56 80 2.6 3.5 0.00 0.00 0.00 42 1009.0
20260506215003 58 60 1.7 3.5 0.00 0.00 0.00 38 1009.2
20260506214003 58 55 2.6 5.2 0.00 0.00 0.00 38 1009.1
20260506213003 58 55 2.6 5.2 0.00 0.00 0.00 38 1009.1
20260506212003 58 68 1.7 3.5 0.00 0.00 0.00 39 1009.0
20260506211003 58 65 1.7 3.5 0.00 0.00 0.00 38 1009.1
20260506210003 58 61 1.7 3.5 0.00 0.00 0.00 38 1009.1
20260506205003 58 75 1.7 2.6 0.00 0.00 0.00 38 1009.2
20260506204003 58 76 0.9 2.6 0.00 0.00 0.00 38 1009.1
20260506203003 58 92 0.9 0.9 0.00 0.00 0.00 38 1008.9
20260506202003 59 151 0.0 0.9 0.00 0.00 0.00 39 1008.9
20260506201003 59 0 0.0 0.0 0.00 0.00 0.00 38 1009.0
20260506200003 60 180 0.0 0.9 0.00 0.00 0.00 36 1008.8
20260506195003 60 180 0.9 0.9 0.00 0.00 0.00 35 1008.9
20260506194003 60 174 0.0 0.9 0.00 0.00 0.00 35 1008.6
20260506193003 60 187 0.0 0.9 0.00 0.00 0.00 36 1008.6
20260506192003 61 216 0.9 1.7 0.00 0.00 0.00 35 1008.4
20260506191003 61 298 0.9 1.7 0.00 0.00 0.00 34 1008.6
20260506190003 63 273 0.9 1.7 0.00 0.00 0.00 33 1008.5
20260506185003 63 122 0.9 1.7 0.00 0.00 0.00 32 1008.6
20260506184003 63 358 1.7 5.2 0.00 0.00 0.00 32 1008.5
20260506183003 64 258 1.7 3.5 0.00 0.00 0.00 32 1008.4
20260506182003 64 99 0.9 2.6 0.00 0.00 0.00 32 1008.3
20260506181003 64 262 1.7 5.2 0.00 0.00 0.00 32 1008.3
20260506180003 63 261 3.5 6.1 0.00 0.00 0.00 32 1008.5
20260506175003 64 227 2.6 7.8 0.00 0.00 0.00 32 1008.5
20260506174003 64 219 2.6 5.2 0.00 0.00 0.00 32 1008.5
20260506173003 64 206 2.6 5.2 0.00 0.00 0.00 32 1008.6
20260506172003 65 257 1.7 5.2 0.00 0.00 0.00 32 1008.4
20260506171003 64 254 3.5 7.8 0.00 0.00 0.00 31 1008.6
20260506170003 64 264 2.6 6.1 0.00 0.00 0.00 32 1008.8
20260506165003 64 346 3.5 6.1 0.00 0.00 0.00 31 1008.8
20260506164003 64 287 4.3 7.0 0.00 0.00 0.00 32 1008.8
20260506163003 64 293 4.3 8.7 0.00 0.00 0.00 32 1008.6
20260506162003 64 316 4.3 8.7 0.00 0.00 0.00 32 1008.5
20260506161003 64 293 2.6 7.0 0.00 0.00 0.00 32 1008.9
20260506160003 64 29 2.6 8.7 0.00 0.00 0.00 32 1008.9
20260506155003 63 351 3.5 7.0 0.00 0.00 0.00 33 1008.6
20260506154003 63 55 2.6 6.1 0.00 0.00 0.00 33 1009.2
20260506153003 63 333 2.6 9.6 0.00 0.00 0.00 34 1009.1
20260506152003 63 18 3.5 9.6 0.00 0.00 0.00 34 1009.2
20260506151003 62 303 2.6 7.8 0.00 0.00 0.00 35 1009.2
20260506150003 61 316 3.5 7.8 0.00 0.00 0.00 35 1009.4
20260506145003 64 289 2.6 7.0 0.00 0.00 0.00 34 1009.4
20260506144003 63 336 4.3 7.8 0.00 0.00 0.00 35 1009.6
20260506143003 63 292 3.5 8.7 0.00 0.00 0.00 35 1009.5
20260506142003 64 237 2.6 7.0 0.00 0.00 0.00 34 1010.0
20260506141003 62 345 2.6 5.2 0.00 0.00 0.00 35 1009.8
20260506140003 63 185 1.7 7.8 0.00 0.00 0.00 36 1010.0
20260506135003 61 217 5.2 8.7 0.00 0.00 0.00 38 1010.2
20260506134003 60 316 2.6 7.0 0.00 0.00 0.00 39 1010.2
20260506133003 61 129 1.7 5.2 0.00 0.00 0.00 39 1010.3
20260506132003 59 75 3.5 8.7 0.00 0.00 0.00 41 1010.3
20260506131003 60 72 3.5 7.0 0.00 0.00 0.00 40 1010.5
20260506130003 59 66 3.5 9.6 0.00 0.00 0.00 43 1010.4
20260506125003 60 210 1.7 5.2 0.00 0.00 0.00 41 1010.4
20260506124003 59 94 1.7 5.2 0.00 0.00 0.00 41 1010.6
20260506123003 60 80 2.6 6.1 0.00 0.00 0.00 40 1010.6
20260506122003 59 232 2.6 7.8 0.00 0.00 0.00 42 1010.8
20260506121003 58 276 2.6 6.1 0.00 0.00 0.00 44 1010.9
20260506120003 58 46 0.9 6.1 0.00 0.00 0.00 44 1011.2
20260506115003 59 273 1.7 5.2 0.00 0.00 0.00 43 1011.2
20260506114003 58 6 2.6 12.2 0.00 0.00 0.00 44 1010.8
20260506113003 56 261 4.3 8.7 0.00 0.00 0.00 47 1011.0
20260506112003 57 288 5.2 9.6 0.00 0.00 0.00 45 1011.2
20260506111003 56 269 2.6 6.1 0.00 0.00 0.00 47 1011.2
20260506110003 56 94 1.7 5.2 0.00 0.00 0.00 48 1011.3
20260506105003 56 38 4.3 11.3 0.00 0.00 0.00 48 1011.3
20260506104003 56 9 3.5 11.3 0.00 0.00 0.00 49 1011.3
20260506103003 55 22 3.5 7.8 0.00 0.00 0.00 51 1011.3
20260506102003 56 37 2.6 7.0 0.00 0.00 0.00 51 1011.3
20260506101003 56 61 3.5 7.8 0.00 0.00 0.00 52 1011.4
20260506100003 55 22 3.5 9.6 0.00 0.00 0.00 55 1011.6
20260506095003 54 51 5.2 8.7 0.00 0.00 0.00 55 1011.6
20260506094003 55 39 2.6 8.7 0.00 0.00 0.00 55 1011.5
20260506093003 53 35 4.3 7.8 0.00 0.00 0.00 58 1011.5
20260506092003 53 39 4.3 9.6 0.00 0.00 0.00 59 1011.6
20260506091003 53 19 3.5 7.8 0.00 0.00 0.00 60 1011.4
20260506090003 52 4 4.3 9.6 0.00 0.00 0.00 65 1011.4
20260506085003 53 6 4.3 9.6 0.00 0.00 0.00 61 1011.5
20260506084003 53 34 3.5 7.8 0.00 0.00 0.00 63 1011.3
20260506083003 53 54 3.5 8.7 0.00 0.00 0.00 60 1011.4
20260506082003 51 43 4.3 9.6 0.00 0.00 0.00 65 1011.4
20260506081003 51 40 2.6 7.0 0.00 0.00 0.00 65 1011.4
20260506073003 50 54 4.3 12.2 0.00 0.00 0.00 62 1011.2
20260506072003 50 61 4.3 9.6 0.00 0.00 0.00 63 1011.2
20260506071003 49 61 4.3 9.6 0.00 0.00 0.00 65 1010.9
20260506062003 46 74 5.2 9.6 0.00 0.00 0.00 70 1010.7
20260506061003 46 75 3.5 7.8 0.00 0.00 0.00 72 1010.7
20260506051003 43 67 5.2 7.8 0.00 0.00 0.00 76 1010.4
20260506045003 43 68 4.3 7.8 0.00 0.00 0.00 76 1010.2
20260506044003 43 70 4.3 7.8 0.00 0.00 0.00 76 1010.2
20260506043003 44 74 4.3 7.8 0.00 0.00 0.00 75 1010.4
20260506042003 43 76 3.5 7.8 0.00 0.00 0.00 75 1010.4
20260506041003 43 61 3.5 7.0 0.00 0.00 0.00 75 1010.4
20260506040003 44 67 3.5 7.0 0.00 0.00 0.00 74 1010.4
20260506035003 44 71 3.5 7.0 0.00 0.00 0.00 75 1010.5
20260506034003 44 75 4.3 7.0 0.00 0.00 0.00 75 1010.5
20260506033003 44 73 3.5 7.0 0.00 0.00 0.00 74 1010.5
20260506032003 44 68 3.5 7.0 0.00 0.00 0.00 74 1010.7
20260506031003 44 69 3.5 7.0 0.00 0.00 0.00 74 1010.6
20260506030003 44 70 4.3 7.0 0.00 0.00 0.00 74 1010.6
20260506025003 44 65 3.5 7.0 0.00 0.00 0.00 74 1010.7
20260506024003 44 72 3.5 6.1 0.00 0.00 0.00 75 1010.7
20260506023003 44 72 3.5 6.1 0.00 0.00 0.00 75 1010.6
20260506021003 45 71 2.6 6.1 0.00 0.00 0.00 73 1010.6
20260506020003 45 68 2.6 6.1 0.00 0.00 0.00 73 1011.0
20260506015003 45 64 2.6 3.5 0.00 0.00 0.00 72 1010.8
20260506014003 45 83 1.7 5.2 0.00 0.00 0.00 73 1011.0
20260506013003 45 78 2.6 7.0 0.00 0.00 0.00 73 1011.0
20260506012003 45 77 3.5 6.1 0.00 0.00 0.00 72 1011.0
20260506011003 45 79 2.6 5.2 0.00 0.00 0.00 72 1010.9
20260506010003 46 67 3.5 5.2 0.00 0.00 0.00 71 1011.0
20260506005003 45 71 2.6 6.1 0.00 0.00 0.00 72 1011.2
20260506004003 46 86 2.6 5.2 0.00 0.00 0.00 71 1011.0
20260506003003 46 74 2.6 6.1 0.00 0.00 0.00 70 1011.2
20260506002003 46 71 2.6 7.0 0.00 0.00 0.00 69 1011.3
20260506001003 46 66 2.6 7.0 0.00 0.00 0.00 70 1011.5
20260506000003 48 56 2.6 6.1 0.00 0.00 0.00 65 1011.4
20260505235003 48 50 3.5 7.0 0.00 0.00 0.00 64 1011.4